Weather History for Winner, SD

Change the Weather History Date:

Wednesday, October 31, 2012

  Actual Average Record
Temperature  
Mean Temperature 55 °F 44 °F  
Max Temperature 73 °F 55 °F 74 °F (2011)
Min Temperature 37 °F 33 °F 33 °F (2007)
Degree Days  
Heating Degree Days 10 21  
Month to date heating degree days 487 457  
Since 1 July heating degree days 545 598  
Cooling Degree Days 0 0  
Month to date cooling degree days 2 10  
Year to date cooling degree days 1470 916  
Growing Degree Days 6 (Base 50)    
Moisture  
Dew Point 39 °F    
Average Humidity 62    
Maximum Humidity 92    
Minimum Humidity 31    
Precipitation  
Precipitation 0.00 in 0.03 in 0.03 in (2010)
Month to date precipitation 0.04 1.64  
Year to date precipitation 10.15 20.63  
Sea Level Pressure  
Sea Level Pressure 29.99 in    
Wind  
Wind Speed 6 mph (West)    
Max Wind Speed 16 mph    
Max Gust Speed 18 mph    
Visibility 10 miles    
Events      
T = Trace of Precipitation, MM = Missing Value Source: NWS Daily Summary

Daily Weather History Graph

Daily Weather History Graph

Search for Another Location

Airport:

Trip Planner

Search our weather history database for the weather conditions in past years. The results will help you decide how hot, cold, wet, or windy it might be!

Date:

Astronomy

Oct. 31, 2012 Rise Set
Actual Time 8:14 AM CDT 6:31 PM CDT
Civil Twilight 7:44 AM CDT 7:00 PM CDT
Nautical Twilight 7:10 AM CDT 7:34 PM CDT
Astronomical Twilight 6:37 AM CDT 8:07 PM CDT
Moon 7:40 PM CDT 9:59 AM CDT
Length of Visible Light 11h 16m
Length of Day
10h 17m
Full, 97% of the Moon is Illuminated
Oct 31
Full
Nov 6
Last Quarter
Nov 13
New
Nov 20
First Quarter
Nov 28
Full

Hourly Weather History & Observations

Time (CDT) Temp. Windchill Dew Point Humidity Pressure Visibility Wind Dir Wind Speed Gust Speed Precip Events Conditions
12:53 AM 50.0 °F - 39.0 °F 66% 30.01 in 9.0 mi SW 6.9 mph - N/A   Clear
1:53 AM 45.0 °F 41.2 °F 37.9 °F 76% 30.01 in 10.0 mi SW 6.9 mph - N/A   Clear
2:53 AM 48.9 °F - 39.0 °F 69% 30.00 in 9.0 mi SW 6.9 mph - N/A   Clear
3:53 AM 50.0 °F - 39.9 °F 68% 29.99 in 10.0 mi SW 5.8 mph - N/A   Clear
4:53 AM 44.1 °F 41.5 °F 37.9 °F 79% 29.99 in 10.0 mi West 4.6 mph - N/A   Clear
5:53 AM 42.1 °F - 37.0 °F 82% 29.99 in 10.0 mi Calm Calm - N/A   Clear
6:53 AM 43.0 °F - 39.0 °F 86% 30.00 in 10.0 mi Calm Calm - N/A   Clear
7:53 AM 39.9 °F 36.7 °F 37.0 °F 89% 30.02 in 10.0 mi SW 4.6 mph - N/A   Clear
8:53 AM 42.1 °F 39.2 °F 37.9 °F 85% 30.04 in 10.0 mi SW 4.6 mph - N/A   Clear
9:53 AM 45.0 °F 42.6 °F 39.0 °F 80% 30.04 in 10.0 mi SW 4.6 mph - N/A   Clear
10:53 AM 52.0 °F - 42.1 °F 69% 30.04 in 10.0 mi West 4.6 mph - N/A   Clear
11:53 AM 59.0 °F - 42.1 °F 53% 30.01 in 10.0 mi WSW 5.8 mph - N/A   Clear
12:53 PM 66.9 °F - 42.1 °F 40% 29.98 in 10.0 mi West 8.1 mph - N/A   Clear
1:53 PM 70.0 °F - 39.0 °F 32% 29.96 in 10.0 mi WNW 6.9 mph - N/A   Clear
2:53 PM 72.0 °F - 39.9 °F 31% 29.94 in 10.0 mi NW 9.2 mph - N/A   Clear
3:53 PM 72.0 °F - 39.9 °F 31% 29.94 in 10.0 mi NNW 6.9 mph - N/A   Clear
4:53 PM 70.0 °F - 41.0 °F 35% 29.94 in 10.0 mi North 6.9 mph - N/A   Clear
5:53 PM 66.0 °F - 41.0 °F 40% 29.95 in 10.0 mi ENE 4.6 mph - N/A   Clear
6:53 PM 60.1 °F - 39.9 °F 47% 29.95 in 10.0 mi SSE 6.9 mph - N/A   Clear
7:53 PM 57.9 °F - 39.9 °F 51% 29.97 in 10.0 mi SSW 5.8 mph - N/A   Clear
8:53 PM 55.0 °F - 39.0 °F 55% 29.98 in 10.0 mi SW 6.9 mph - N/A   Clear
9:53 PM 46.0 °F 42.5 °F 37.9 °F 73% 30.01 in 10.0 mi WNW 6.9 mph - N/A   Clear
10:53 PM 46.0 °F 41.0 °F 39.0 °F 76% 30.03 in 10.0 mi NW 10.4 mph - N/A   Clear
11:53 PM 45.0 °F 39.3 °F 39.0 °F 80% 30.03 in 10.0 mi NNW 11.5 mph - N/A   Clear